Location: Aulnoy
(48.8410°N, 3.0967°E)
Time: 23:40:36
(UTC+00:00)

Envisat - Pass Details

Date: 01 March 2024
Orbit: 762 x 764 km, 98.3° (Epoch: 12 April)

Event Time Altitude Azimuth Distance (km) Brightness Sun altitude
Rises 02:01:36 0° 27° (NNE) 3,241 7.0 -41.3°
Reaches altitude 10° 02:04:39 10° 46° (NE) 2,309 6.1 -41.0°
Enters shadow 02:06:24 16° 65° (ENE) 1,934 5.6 -40.8°
